Location: Lac Lasalle
(46.0398°N, 74.1576°W)
Time: 18:06:23
(UTC-04:00)

ISS - Pass Details

Date: 24 March 2019
Orbit: 408 x 410 km, 51.6° (Epoch: 24 April)

Event Time Altitude Azimuth Distance (km) Brightness Sun altitude
Rises 22:15:36 0° 280° (W) 2,334 0.9 -29.8°
Reaches altitude 10° 22:17:51 10° 291° (WNW) 1,473 -0.2 -30.1°
Enters shadow 22:18:20 13° 296° (WNW) 1,298 -0.5 -30.1°
